Location: Unspecified
(0.0000°N, 0.0000°E)
Time: 09:21:12
(UTC+00:00)

deb Delta 126 - Pass Details

Date: 17 February 2026
Orbit: 1485 x 1545 km, 102.1° (Epoch: 9 March)

Event Time Altitude Azimuth Distance (km) Brightness Sun altitude
Rises 04:46:14 0° 345° (NNW) 4,665 ? -21.4°
Enters shadow 04:48:29 - 336° (NNW) 4,066 ? -20.9°
Exits shadow 05:04:26 - 232° (SW) 4,457 ? -17.0°
Sets 05:05:04 0° 230° (SW) 4,629 ? -16.9°
